QPF
0.00 0.00 0.00 0.00 0.00 0.00 0.00 0.01 0.01 0.01 0.01 0.01 0.01 0.01 0.02 0.03 0.03 0.02 0.04 0.05 0.05 0.08 0.13 0.12 0.11 0.10 0.08 0.08 0.05 0.04 0.03 0.02 0.02 0.01 0.01 0.02 0.03 0.03 0.03 0.02 0.01 0.01 0.01
0.01 0.00 0.01 0.00 0.00 0.00 0.01 0.01 0.02 0.02 0.02 0.02 0.01 0.01 0.02 0.03 0.03 0.03 0.03 0.03 0.05 0.06 0.11 0.15 0.13 0.10 0.08 0.09 0.07 0.05 0.04 0.02 0.01 0.02 0.02 0.02 0.02 0.03 0.03 0.02 0.02 0.01 0.01
0.01 0.01 0.01 0.01 0.00 0.00 0.00 0.01 0.02 0.03 0.03 0.02 0.01 0.01 0.02 0.03 0.03 0.03 0.03 0.04 0.04 0.04 0.08 0.14 0.13 0.10 0.08 0.07 0.10 0.06 0.05 0.03 0.02 0.02 0.02 0.02 0.02 0.02 0.03 0.02 0.02 0.02 0.02
0.02 0.01 0.01 0.01 0.01 0.01 0.01 0.00 0.02 0.03 0.04 0.02 0.01 0.01 0.01 0.02 0.03 0.03 0.03 0.05 0.05 0.04 0.05 0.08 0.11 0.10 0.09 0.09 0.14 0.13 0.07 0.05 0.03 0.03 0.03 0.03 0.03 0.03 0.03 0.03 0.02 0.02 0.02
0.02 0.02 0.01 0.01 0.01 0.01 0.01 0.01 0.01 0.03 0.03 0.03 0.02 0.02 0.01 0.01 0.02 0.03 0.03 0.04 0.05 0.05 0.04 0.05 0.08 0.09 0.08 0.08 0.10 0.14 0.11 0.09 0.07 0.06 0.05 0.04 0.05 0.04 0.03 0.02 0.03 0.02 0.02
0.02 0.02 0.01 0.01 0.01 0.02 0.01 0.01 0.02 0.03 0.03 0.04 0.04 0.03 0.02 0.02 0.02 0.02 0.03 0.04 0.05 0.06 0.05 0.04 0.06 0.08 0.09 0.08 0.08 0.10 0.10 0.06 0.05 0.06 0.06 0.05 0.05 0.05 0.05 0.03 0.02 0.02 0.02
0.01 0.02 0.02 0.01 0.01 0.02 0.02 0.01 0.03 0.04 0.04 0.05 0.04 0.03 0.03 0.03 0.03 0.02 0.03 0.04 0.05 0.07 0.07 0.04 0.04 0.06 0.08 0.08 0.08 0.09 0.11 0.09 0.04 0.03 0.04 0.05 0.05 0.04 0.04 0.04 0.03 0.03 0.03
0.02 0.02 0.02 0.02 0.02 0.02 0.02 0.02 0.03 0.05 0.06 0.06 0.05 0.04 0.03 0.04 0.03 0.03 0.03 0.04 0.05 0.06 0.08 0.06 0.04 0.04 0.05 0.06 0.06 0.08 0.11 0.13 0.06 0.03 0.03 0.03 0.03 0.04 0.04 0.05 0.04 0.03 0.03
0.03 0.02 0.02 0.02 0.02 0.02 0.02 0.03 0.03 0.04 0.05 0.06 0.06 0.06 0.04 0.04 0.04 0.05 0.04 0.04 0.05 0.05 0.06 0.07 0.06 0.04 0.04 0.05 0.05 0.05 0.07 0.15 0.12 0.05 0.04 0.03 0.03 0.04 0.05 0.05 0.05 0.04 0.03
0.05 0.04 0.03 0.03 0.03 0.02 0.02 0.03 0.04 0.04 0.04 0.06 0.07 0.06 0.05 0.04 0.04 0.04 0.04 0.04 0.05 0.05 0.05 0.05 0.06 0.06 0.05 0.04 0.05 0.04 0.04 0.09 0.18 0.10 0.05 0.04 0.04 0.05 0.05 0.06 0.05 0.04 0.03
0.05 0.05 0.05 0.05 0.05 0.04 0.04 0.04 0.05 0.05 0.05 0.05 0.06 0.06 0.06 0.05 0.05 0.04 0.04 0.04 0.04 0.05 0.05 0.04 0.04 0.06 0.06 0.04 0.03 0.04 0.03 0.03 0.10 0.17 0.09 0.04 0.04 0.04 0.05 0.05 0.05 0.05 0.03
0.07 0.08 0.07 0.08 0.08 0.08 0.08 0.08 0.08 0.08 0.06 0.05 0.05 0.05 0.05 0.07 0.07 0.06 0.04 0.04 0.04 0.05 0.05 0.04 0.04 0.04 0.05 0.05 0.03 0.03 0.03 0.03 0.04 0.10 0.14 0.09 0.04 0.03 0.04 0.04 0.04 0.04 0.04
0.05 0.07 0.08 0.08 0.08 0.09 0.10 0.09 0.08 0.08 0.07 0.06 0.06 0.06 0.05 0.05 0.06 0.06 0.05 0.05 0.05 0.05 0.05 0.05 0.04 0.04 0.04 0.04 0.04 0.04 0.03 0.03 0.04 0.05 0.09 0.11 0.07 0.05 0.03 0.03 0.03 0.03 0.03
0.03 0.04 0.04 0.05 0.05 0.06 0.07 0.07 0.06 0.07 0.06 0.06 0.05 0.05 0.06 0.06 0.07 0.07 0.07 0.06 0.06 0.06 0.05 0.05 0.05 0.05 0.05 0.05 0.04 0.04 0.03 0.04 0.04 0.04 0.05 0.07 0.07 0.05 0.04 0.03 0.02 0.02 0.02
0.02 0.03 0.03 0.03 0.03 0.04 0.05 0.05 0.04 0.04 0.05 0.05 0.05 0.04 0.04 0.05 0.06 0.06 0.06 0.06 0.07 0.07 0.05 0.05 0.06 0.06 0.06 0.06 0.05 0.04 0.03 0.03 0.04 0.05 0.05 0.05 0.05 0.04 0.04 0.03 0.03 0.02 0.02
0.02 0.02 0.02 0.02 0.02 0.03 0.03 0.04 0.04 0.04 0.04 0.04 0.05 0.05 0.05 0.04 0.05 0.06 0.07 0.07 0.06 0.05 0.04 0.05 0.06 0.07 0.07 0.07 0.07 0.05 0.04 0.03 0.04 0.05 0.05 0.05 0.05 0.04 0.03 0.03 0.03 0.02 0.02
0.03 0.03 0.03 0.03 0.03 0.02 0.02 0.03 0.04 0.04 0.05 0.04 0.05 0.05 0.06 0.05 0.05 0.05 0.05 0.06 0.05 0.04 0.03 0.03 0.04 0.05 0.07 0.07 0.07 0.06 0.05 0.04 0.04 0.04 0.05 0.05 0.05 0.04 0.04 0.03 0.02 0.02 0.02
0.04 0.04 0.03 0.03 0.03 0.03 0.03 0.03 0.04 0.04 0.05 0.04 0.04 0.04 0.05 0.05 0.05 0.05 0.05 0.05 0.05 0.04 0.03 0.03 0.04 0.05 0.06 0.07 0.07 0.06 0.05 0.04 0.04 0.04 0.05 0.05 0.05 0.04 0.04 0.03 0.02 0.02 0.02
0.04 0.04 0.03 0.03 0.03 0.03 0.04 0.04 0.04 0.04 0.04 0.04 0.04 0.03 0.04 0.05 0.04 0.04 0.03 0.04 0.05 0.04 0.02 0.03 0.04 0.05 0.06 0.07 0.08 0.08 0.06 0.05 0.04 0.04 0.05 0.06 0.05 0.04 0.04 0.03 0.03 0.02 0.01
0.04 0.04 0.04 0.03 0.03 0.03 0.02 0.03 0.04 0.04 0.04 0.04 0.03 0.03 0.03 0.04 0.05 0.03 0.03 0.03 0.04 0.04 0.03 0.04 0.04 0.04 0.06 0.07 0.08 0.09 0.08 0.07 0.06 0.05 0.06 0.07 0.07 0.06 0.05 0.04 0.03 0.02 0.02
0.04 0.04 0.05 0.04 0.04 0.04 0.03 0.03 0.02 0.03 0.03 0.03 0.03 0.03 0.03 0.03 0.05 0.05 0.04 0.03 0.04 0.04 0.03 0.03 0.03 0.03 0.05 0.08 0.08 0.08 0.08 0.08 0.07 0.06 0.06 0.06 0.07 0.07 0.07 0.05 0.04 0.03 0.02
0.05 0.04 0.04 0.04 0.04 0.04 0.04 0.04 0.03 0.02 0.03 0.02 0.02 0.02 0.02 0.02 0.04 0.06 0.05 0.04 0.04 0.03 0.03 0.03 0.03 0.03 0.04 0.06 0.07 0.07 0.07 0.08 0.08 0.07 0.05 0.05 0.05 0.06 0.07 0.06 0.04 0.03 0.03
0.04 0.04 0.03 0.03 0.03 0.03 0.04 0.04 0.03 0.03 0.03 0.03 0.03 0.02 0.02 0.03 0.03 0.04 0.05 0.05 0.04 0.03 0.03 0.03 0.03 0.02 0.03 0.03 0.05 0.06 0.07 0.07 0.07 0.07 0.07 0.06 0.04 0.03 0.03 0.05 0.05 0.03 0.02
0.04 0.03 0.03 0.02 0.02 0.03 0.03 0.03 0.03 0.02 0.02 0.02 0.03 0.03 0.03 0.03 0.03 0.03 0.04 0.05 0.05 0.03 0.02 0.02 0.02 0.02 0.02 0.03 0.04 0.05 0.06 0.07 0.07 0.07 0.07 0.07 0.05 0.03 0.02 0.02 0.03 0.03 0.02
0.02 0.03 0.03 0.02 0.02 0.02 0.02 0.03 0.03 0.03 0.03 0.03 0.03 0.02 0.02 0.02 0.03 0.03 0.03 0.04 0.04 0.05 0.03 0.03 0.03 0.02 0.02 0.02 0.03 0.04 0.06 0.08 0.09 0.08 0.07 0.09 0.07 0.04 0.03 0.02 0.02 0.03 0.03
0.02 0.02 0.02 0.02 0.02 0.03 0.02 0.02 0.03 0.03 0.03 0.03 0.03 0.03 0.03 0.02 0.03 0.03 0.03 0.04 0.04 0.04 0.04 0.03 0.02 0.02 0.02 0.02 0.02 0.03 0.04 0.05 0.07 0.09 0.07 0.07 0.08 0.08 0.07 0.05 0.03 0.03 0.03
MSLP
1022.60 1022.43 1022.24 1022.04 1021.84 1021.67 1021.53 1021.42 1021.34 1021.28 1021.23 1021.18 1021.14 1021.10 1021.06 1021.01 1020.97 1020.91 1020.83 1020.73 1020.59 1020.43 1020.24 1020.06 1019.88 1019.72 1019.60 1019.51 1019.46 1019.43 1019.41 1019.38 1019.34 1019.29 1019.22 1019.14 1019.07 1019.00 1018.93 1018.88 1018.83 1018.78 1018.74
1022.70 1022.55 1022.39 1022.24 1022.11 1021.99 1021.90 1021.82 1021.75 1021.68 1021.62 1021.55 1021.48 1021.42 1021.37 1021.33 1021.30 1021.25 1021.18 1021.08 1020.94 1020.77 1020.57 1020.37 1020.17 1020.00 1019.86 1019.76 1019.69 1019.65 1019.62 1019.59 1019.55 1019.50 1019.45 1019.39 1019.34 1019.30 1019.26 1019.22 1019.18 1019.13 1019.08
1022.76 1022.63 1022.52 1022.43 1022.37 1022.33 1022.29 1022.25 1022.20 1022.13 1022.04 1021.95 1021.85 1021.77 1021.71 1021.67 1021.64 1021.61 1021.56 1021.47 1021.33 1021.16 1020.96 1020.74 1020.53 1020.34 1020.18 1020.06 1019.98 1019.91 1019.85 1019.80 1019.75 1019.69 1019.64 1019.59 1019.56 1019.54 1019.52 1019.50 1019.47 1019.43 1019.38
1022.84 1022.73 1022.67 1022.64 1022.65 1022.68 1022.70 1022.70 1022.66 1022.59 1022.48 1022.36 1022.24 1022.14 1022.07 1022.03 1022.00 1021.98 1021.94 1021.87 1021.75 1021.58 1021.38 1021.17 1020.96 1020.76 1020.59 1020.45 1020.34 1020.24 1020.15 1020.07 1019.98 1019.90 1019.83 1019.78 1019.74 1019.73 1019.72 1019.72 1019.70 1019.67 1019.62
1022.98 1022.89 1022.85 1022.88 1022.94 1023.02 1023.09 1023.12 1023.10 1023.02 1022.90 1022.76 1022.61 1022.50 1022.42 1022.38 1022.37 1022.36 1022.34 1022.28 1022.17 1022.02 1021.84 1021.64 1021.43 1021.24 1021.07 1020.92 1020.79 1020.66 1020.54 1020.41 1020.28 1020.16 1020.05 1019.97 1019.92 1019.90 1019.89 1019.89 1019.88 1019.85 1019.81
1023.18 1023.10 1023.08 1023.13 1023.23 1023.35 1023.44 1023.49 1023.48 1023.40 1023.26 1023.11 1022.96 1022.85 1022.77 1022.74 1022.74 1022.74 1022.73 1022.69 1022.60 1022.46 1022.30 1022.11 1021.93 1021.75 1021.60 1021.45 1021.31 1021.16 1021.00 1020.83 1020.66 1020.49 1020.34 1020.22 1020.14 1020.09 1020.06 1020.04 1020.03 1020.00 1019.95
1023.44 1023.34 1023.33 1023.39 1023.50 1023.63 1023.73 1023.79 1023.77 1023.69 1023.56 1023.42 1023.28 1023.18 1023.12 1023.10 1023.12 1023.13 1023.13 1023.09 1023.01 1022.88 1022.73 1022.57 1022.40 1022.25 1022.12 1021.99 1021.85 1021.70 1021.52 1021.32 1021.11 1020.89 1020.69 1020.52 1020.40 1020.31 1020.25 1020.21 1020.17 1020.13 1020.07
1023.69 1023.59 1023.57 1023.63 1023.73 1023.85 1023.95 1024.00 1023.99 1023.91 1023.80 1023.67 1023.57 1023.49 1023.47 1023.48 1023.51 1023.54 1023.54 1023.49 1023.40 1023.28 1023.13 1022.98 1022.83 1022.71 1022.60 1022.50 1022.38 1022.24 1022.06 1021.84 1021.60 1021.35 1021.11 1020.90 1020.72 1020.59 1020.49 1020.41 1020.34 1020.27 1020.19
1023.92 1023.81 1023.78 1023.82 1023.91 1024.01 1024.10 1024.14 1024.12 1024.07 1023.98 1023.89 1023.84 1023.81 1023.83 1023.88 1023.93 1023.96 1023.96 1023.90 1023.79 1023.65 1023.49 1023.33 1023.20 1023.10 1023.02 1022.95 1022.86 1022.74 1022.58 1022.37 1022.12 1021.84 1021.57 1021.32 1021.10 1020.92 1020.77 1020.65 1020.54 1020.43 1020.32
1024.07 1023.98 1023.95 1023.98 1024.05 1024.14 1024.20 1024.23 1024.22 1024.18 1024.13 1024.10 1024.10 1024.13 1024.20 1024.29 1024.37 1024.41 1024.39 1024.31 1024.18 1024.00 1023.82 1023.66 1023.52 1023.43 1023.37 1023.33 1023.28 1023.19 1023.05 1022.85 1022.61 1022.33 1022.04 1021.76 1021.51 1021.29 1021.10 1020.93 1020.78 1020.63 1020.48
1024.16 1024.10 1024.09 1024.12 1024.18 1024.24 1024.29 1024.31 1024.30 1024.29 1024.28 1024.29 1024.35 1024.45 1024.58 1024.71 1024.82 1024.86 1024.84 1024.73 1024.57 1024.36 1024.15 1023.96 1023.82 1023.73 1023.69 1023.66 1023.64 1023.57 1023.46 1023.29 1023.06 1022.78 1022.49 1022.19 1021.91 1021.66 1021.44 1021.23 1021.04 1020.85 1020.67
1024.20 1024.19 1024.21 1024.26 1024.31 1024.36 1024.39 1024.40 1024.40 1024.40 1024.42 1024.48 1024.60 1024.76 1024.94 1025.11 1025.24 1025.30 1025.27 1025.16 1024.97 1024.74 1024.50 1024.29 1024.13 1024.03 1023.99 1023.97 1023.96 1023.91 1023.82 1023.66 1023.44 1023.18 1022.88 1022.58 1022.28 1022.01 1021.75 1021.52 1021.30 1021.08 1020.87
1024.24 1024.28 1024.34 1024.40 1024.46 1024.50 1024.52 1024.51 1024.51 1024.51 1024.56 1024.65 1024.81 1025.02 1025.24 1025.45 1025.62 1025.70 1025.68 1025.56 1025.36 1025.12 1024.87 1024.65 1024.48 1024.36 1024.31 1024.28 1024.26 1024.22 1024.12 1023.97 1023.75 1023.49 1023.19 1022.88 1022.58 1022.28 1022.01 1021.76 1021.52 1021.28 1021.04
1024.28 1024.37 1024.47 1024.56 1024.63 1024.66 1024.66 1024.64 1024.62 1024.63 1024.68 1024.79 1024.97 1025.20 1025.46 1025.71 1025.90 1026.01 1026.01 1025.92 1025.74 1025.51 1025.26 1025.04 1024.85 1024.73 1024.65 1024.60 1024.56 1024.49 1024.37 1024.20 1023.97 1023.70 1023.39 1023.07 1022.76 1022.46 1022.17 1021.91 1021.65 1021.40 1021.16
1024.33 1024.47 1024.60 1024.72 1024.79 1024.82 1024.81 1024.78 1024.74 1024.73 1024.77 1024.88 1025.07 1025.31 1025.58 1025.85 1026.07 1026.21 1026.25 1026.20 1026.06 1025.86 1025.64 1025.43 1025.25 1025.11 1025.01 1024.92 1024.83 1024.72 1024.56 1024.35 1024.09 1023.78 1023.46 1023.12 1022.80 1022.49 1022.20 1021.93 1021.68 1021.43 1021.18
1024.38 1024.54 1024.70 1024.83 1024.91 1024.94 1024.93 1024.88 1024.83 1024.80 1024.83 1024.93 1025.10 1025.34 1025.61 1025.88 1026.13 1026.30 1026.38 1026.38 1026.29 1026.15 1025.97 1025.79 1025.62 1025.47 1025.33 1025.20 1025.06 1024.88 1024.66 1024.40 1024.08 1023.74 1023.38 1023.02 1022.68 1022.36 1022.07 1021.80 1021.55 1021.31 1021.07
1024.39 1024.56 1024.73 1024.87 1024.96 1025.00 1024.99 1024.94 1024.88 1024.84 1024.85 1024.93 1025.08 1025.30 1025.56 1025.83 1026.08 1026.28 1026.40 1026.45 1026.42 1026.33 1026.20 1026.05 1025.90 1025.74 1025.58 1025.40 1025.19 1024.95 1024.66 1024.32 1023.95 1023.55 1023.15 1022.76 1022.40 1022.07 1021.77 1021.50 1021.26 1021.03 1020.80
1024.32 1024.49 1024.66 1024.80 1024.91 1024.97 1024.97 1024.94 1024.89 1024.85 1024.85 1024.91 1025.04 1025.23 1025.47 1025.72 1025.97 1026.17 1026.32 1026.41 1026.43 1026.39 1026.30 1026.19 1026.05 1025.89 1025.70 1025.47 1025.21 1024.89 1024.53 1024.13 1023.69 1023.24 1022.80 1022.38 1021.99 1021.64 1021.33 1021.06 1020.82 1020.59 1020.37
1024.17 1024.32 1024.48 1024.64 1024.77 1024.85 1024.88 1024.88 1024.85 1024.83 1024.84 1024.90 1025.00 1025.17 1025.37 1025.59 1025.81 1026.01 1026.16 1026.27 1026.31 1026.31 1026.26 1026.17 1026.04 1025.88 1025.67 1025.41 1025.09 1024.72 1024.30 1023.84 1023.35 1022.86 1022.37 1021.92 1021.50 1021.12 1020.80 1020.51 1020.25 1020.02 1019.80
1023.93 1024.06 1024.22 1024.39 1024.54 1024.65 1024.73 1024.77 1024.78 1024.80 1024.83 1024.88 1024.98 1025.11 1025.28 1025.46 1025.64 1025.81 1025.95 1026.04 1026.10 1026.11 1026.08 1026.00 1025.88 1025.72 1025.49 1025.21 1024.87 1024.46 1024.00 1023.50 1022.97 1022.44 1021.92 1021.43 1020.97 1020.57 1020.20 1019.88 1019.60 1019.34 1019.10
1023.66 1023.77 1023.92 1024.09 1024.25 1024.40 1024.52 1024.61 1024.68 1024.73 1024.79 1024.86 1024.95 1025.06 1025.19 1025.33 1025.46 1025.58 1025.68 1025.75 1025.79 1025.80 1025.77 1025.70 1025.59 1025.43 1025.20 1024.91 1024.56 1024.14 1023.66 1023.14 1022.59 1022.03 1021.49 1020.96 1020.47 1020.02 1019.61 1019.24 1018.90 1018.60 1018.32
1023.39 1023.48 1023.61 1023.78 1023.96 1024.12 1024.28 1024.41 1024.53 1024.63 1024.72 1024.80 1024.89 1024.99 1025.08 1025.17 1025.25 1025.32 1025.37 1025.40 1025.42 1025.41 1025.37 1025.31 1025.20 1025.05 1024.84 1024.56 1024.22 1023.81 1023.33 1022.81 1022.26 1021.69 1021.12 1020.56 1020.03 1019.53 1019.05 1018.61 1018.21 1017.84 1017.50
1023.17 1023.23 1023.34 1023.49 1023.66 1023.83 1024.00 1024.17 1024.31 1024.45 1024.57 1024.68 1024.77 1024.85 1024.92 1024.97 1025.00 1025.02 1025.02 1025.01 1025.00 1024.97 1024.93 1024.87 1024.77 1024.64 1024.45 1024.20 1023.88 1023.49 1023.04 1022.54 1021.99 1021.41 1020.83 1020.24 1019.66 1019.09 1018.55 1018.03 1017.54 1017.08 1016.67
1023.02 1023.05 1023.13 1023.24 1023.38 1023.53 1023.70 1023.87 1024.03 1024.18 1024.33 1024.45 1024.55 1024.63 1024.67 1024.70 1024.69 1024.67 1024.64 1024.60 1024.56 1024.51 1024.47 1024.41 1024.33 1024.22 1024.06 1023.84 1023.56 1023.20 1022.78 1022.30 1021.76 1021.18 1020.58 1019.96 1019.33 1018.70 1018.08 1017.47 1016.90 1016.36 1015.86
1022.93 1022.92 1022.96 1023.02 1023.11 1023.23 1023.36 1023.51 1023.67 1023.84 1023.99 1024.12 1024.23 1024.31 1024.36 1024.36 1024.34 1024.30 1024.24 1024.18 1024.12 1024.07 1024.03 1023.98 1023.91 1023.82 1023.69 1023.50 1023.24 1022.92 1022.52 1022.05 1021.52 1020.94 1020.32 1019.66 1018.99 1018.30 1017.61 1016.93 1016.27 1015.64 1015.07
1022.84 1022.81 1022.80 1022.80 1022.84 1022.91 1023.00 1023.12 1023.27 1023.43 1023.59 1023.73 1023.85 1023.94 1024.00 1024.01 1023.98 1023.93 1023.87 1023.80 1023.74 1023.68 1023.63 1023.58 1023.52 1023.44 1023.32 1023.14 1022.90 1022.58 1022.20 1021.73 1021.20 1020.61 1019.97 1019.29 1018.57 1017.83 1017.08 1016.34 1015.61 1014.93 1014.29
Thickness
5579 5581 5583 5586 5589 5592 5595 5597 5600 5604 5607 5609 5613 5616 5618 5620 5623 5626 5629 5631 5633 5635 5636 5637 5638 5639 5639 5639 5639 5639 5639 5639 5639 5639 5639 5639 5639 5639 5639 5639 5639 5638 5638
5569 5571 5573 5575 5578 5581 5584 5587 5590 5593 5596 5599 5603 5606 5609 5611 5615 5618 5621 5623 5626 5628 5629 5631 5632 5633 5633 5633 5633 5634 5633 5633 5633 5633 5634 5634 5634 5634 5634 5634 5633 5633 5632
5559 5561 5563 5565 5567 5570 5573 5576 5579 5582 5585 5589 5592 5596 5599 5602 5606 5608 5612 5615 5617 5620 5622 5623 5625 5626 5627 5627 5628 5628 5628 5627 5627 5627 5628 5628 5628 5628 5628 5628 5628 5628 5627
5549 5550 5552 5554 5557 5559 5562 5564 5567 5570 5574 5577 5582 5586 5589 5593 5596 5599 5602 5606 5608 5611 5613 5615 5617 5619 5620 5621 5621 5621 5621 5621 5621 5621 5622 5622 5622 5622 5623 5623 5622 5622 5622
5538 5540 5542 5544 5546 5548 5550 5553 5555 5559 5562 5566 5570 5575 5579 5583 5586 5590 5593 5596 5599 5602 5604 5606 5608 5610 5612 5613 5614 5614 5615 5615 5615 5615 5615 5616 5616 5616 5617 5617 5616 5616 5616
5528 5529 5531 5533 5535 5536 5538 5541 5543 5547 5551 5555 5559 5563 5567 5572 5576 5580 5583 5586 5590 5592 5595 5597 5599 5601 5603 5605 5606 5607 5607 5608 5608 5608 5608 5609 5609 5610 5610 5610 5610 5610 5610
5518 5519 5520 5521 5523 5525 5527 5529 5531 5535 5538 5543 5546 5550 5556 5561 5566 5570 5573 5576 5580 5583 5585 5587 5590 5592 5593 5595 5597 5599 5599 5600 5600 5601 5601 5602 5602 5603 5603 5603 5603 5604 5604
5507 5508 5509 5510 5511 5514 5515 5518 5520 5522 5526 5530 5533 5538 5542 5547 5553 5559 5562 5566 5569 5572 5575 5577 5580 5582 5584 5586 5587 5589 5590 5591 5593 5594 5594 5594 5595 5595 5596 5596 5596 5596 5596
5495 5497 5498 5498 5500 5502 5504 5506 5509 5512 5514 5518 5522 5526 5530 5534 5537 5544 5550 5554 5557 5561 5564 5567 5570 5572 5574 5576 5578 5580 5581 5582 5584 5585 5586 5587 5587 5588 5588 5588 5589 5589 5588
5483 5485 5486 5487 5488 5490 5492 5495 5498 5500 5503 5506 5509 5514 5518 5522 5524 5529 5535 5540 5545 5549 5552 5556 5560 5562 5564 5566 5567 5569 5571 5573 5574 5575 5577 5578 5579 5579 5580 5580 5580 5580 5580
5471 5473 5474 5475 5476 5477 5480 5483 5486 5489 5492 5495 5498 5502 5505 5508 5512 5516 5521 5526 5531 5536 5540 5544 5548 5551 5553 5555 5557 5559 5560 5562 5564 5565 5567 5568 5569 5571 5571 5571 5571 5571 5571
5459 5461 5462 5463 5464 5465 5468 5471 5475 5477 5480 5483 5487 5491 5495 5498 5501 5505 5508 5512 5517 5523 5527 5532 5536 5540 5542 5544 5546 5548 5549 5551 5552 5555 5556 5558 5559 5561 5561 5562 5562 5562 5562
5447 5448 5449 5451 5452 5453 5455 5459 5463 5466 5469 5472 5476 5480 5484 5488 5491 5494 5497 5499 5503 5508 5514 5519 5524 5528 5530 5533 5535 5537 5538 5540 5542 5544 5546 5548 5549 5550 5551 5551 5552 5552 5552
5435 5436 5437 5439 5440 5442 5444 5447 5450 5454 5457 5460 5464 5468 5472 5476 5479 5482 5485 5487 5489 5494 5500 5507 5511 5514 5517 5520 5523 5525 5527 5529 5531 5533 5535 5537 5538 5539 5540 5541 5542 5542 5542
5422 5423 5425 5427 5429 5431 5433 5435 5439 5442 5445 5448 5452 5456 5460 5464 5467 5470 5473 5476 5479 5483 5489 5495 5498 5502 5505 5508 5511 5513 5516 5518 5520 5523 5525 5527 5528 5530 5531 5531 5532 5532 5533
5409 5411 5413 5415 5417 5419 5422 5424 5427 5430 5433 5437 5441 5445 5448 5452 5455 5458 5461 5465 5468 5473 5478 5484 5486 5489 5492 5495 5498 5502 5505 5508 5510 5513 5515 5517 5519 5520 5521 5521 5521 5522 5523
5397 5400 5402 5404 5406 5408 5410 5413 5416 5419 5422 5425 5428 5433 5437 5440 5443 5446 5449 5453 5456 5460 5464 5470 5473 5476 5479 5483 5488 5490 5494 5497 5499 5501 5504 5507 5509 5510 5510 5512 5512 5512 5513
5386 5388 5390 5392 5395 5398 5400 5402 5405 5408 5411 5414 5417 5421 5425 5428 5431 5434 5438 5441 5445 5449 5453 5457 5461 5463 5468 5472 5476 5479 5482 5485 5488 5490 5493 5495 5497 5499 5500 5501 5502 5502 5503
5374 5376 5378 5381 5384 5387 5389 5392 5395 5397 5400 5403 5406 5409 5413 5416 5420 5423 5427 5431 5434 5438 5442 5446 5450 5452 5456 5459 5463 5466 5469 5473 5476 5479 5481 5484 5486 5488 5489 5490 5491 5492 5493
5362 5364 5367 5370 5372 5375 5378 5381 5383 5386 5389 5392 5395 5399 5403 5406 5410 5413 5416 5420 5423 5426 5430 5434 5438 5441 5443 5447 5451 5454 5457 5460 5463 5467 5470 5472 5474 5476 5478 5480 5481 5482 5483
5350 5352 5354 5357 5360 5363 5367 5370 5373 5376 5378 5381 5384 5388 5393 5397 5401 5403 5407 5410 5413 5415 5418 5422 5426 5429 5432 5435 5440 5443 5444 5447 5450 5454 5457 5460 5463 5465 5466 5468 5470 5471 5473
5337 5339 5342 5345 5349 5352 5356 5360 5362 5365 5368 5370 5374 5377 5382 5386 5390 5394 5398 5402 5404 5406 5409 5412 5416 5420 5423 5426 5429 5431 5432 5434 5438 5443 5445 5448 5451 5453 5455 5457 5459 5461 5462
5326 5327 5330 5333 5337 5341 5345 5348 5351 5353 5357 5360 5363 5367 5372 5377 5380 5383 5387 5391 5393 5396 5400 5403 5407 5410 5413 5417 5418 5420 5422 5424 5427 5430 5430 5436 5439 5441 5444 5446 5448 5450 5450
5314 5316 5319 5322 5325 5329 5333 5337 5341 5343 5346 5350 5354 5358 5361 5366 5370 5373 5376 5379 5382 5386 5389 5393 5398 5401 5402 5404 5406 5408 5410 5411 5413 5415 5417 5421 5426 5430 5433 5435 5436 5438 5439
5303 5305 5308 5311 5314 5318 5322 5326 5330 5332 5336 5340 5344 5349 5352 5356 5361 5364 5366 5369 5372 5375 5377 5380 5384 5387 5389 5391 5393 5393 5394 5396 5400 5403 5405 5408 5413 5416 5420 5423 5425 5426 5427
5292 5294 5297 5300 5303 5307 5311 5316 5320 5323 5327 5331 5335 5340 5344 5347 5351 5354 5356 5358 5362 5365 5366 5369 5371 5374 5376 5378 5380 5381 5383 5385 5387 5391 5394 5395 5398 5401 5405 5410 5412 5413 5413